Regional Weather Roundup
Issued by NWS Albany, NY

Current Version | Previous Version | Graphics & Text | Print | Product List | Glossary Off
Versions: 1 2 3 4 5 6 7 8 9 10 11 12 13 14 15 16 17 18 19 20 21 22 23 24 25 26 27

000
ASUS41 KALY 270210
RWRALY

NEW YORK STATE HOURLY WEATHER ROUNDUP
NATIONAL WEATHER SERVICE ALBANY NY
900 PM EST SUN FEB 26 2017

NOTE: "FAIR" INDICATES FEW OR NO CLOUDS BELOW 12,000 FEET WITH NO
SIGNIFICANT WEATHER AND/OR NO OBSTRUCTIONS TO VISIBILITY.

NYZ032-033-038>043-046>054-057>066-NYZ062>081-082-084-270300-
EAST


CITY           SKY/WX    TMP DP  RH WIND       PRES   REMARKS
ALBANY         PTCLDY    26  18  71 S7        30.16R WCI  18
GLENS FALLS    CLEAR     31  18  58 S5        30.13R WCI  26
POUGHKEEPSIE   CLEAR     32  16  51 W5        30.20R WCI  27
NEWBURGH       MOCLDY    30  19  64 W8        30.20R WCI  23
MONTGOMERY     CLEAR     28  19  69 SW3       30.19R
WHITE PLAINS   CLEAR     34  14  43 W8        30.19R WCI  27
ISLIP          CLEAR     35  18  49 NW9       30.21R WCI  28
NEW YORK CITY  PTCLDY    40  17  39 W16G25    30.22R WCI  31
CENTRAL PARK   CLEAR     37  16  42 W8G18     30.24R WCI  31
$$

NYZ005>009-017-018-044>046-055-056-270300-
CENTRAL


CITY           SKY/WX    TMP DP  RH WIND       PRES   REMARKS
FULTON         CLEAR     25  17  72 CALM      30.10R
SYRACUSE       CLEAR     29  17  61 S5        30.11R WCI  24
ROME           CLEAR     26  21  81 SE5       30.13S WCI  20
ELMIRA         CLEAR     27  16  63 W5        30.13R WCI  22
BINGHAMTON     CLEAR     25  14  63 SW8       30.09R WCI  16
MONTICELLO     CLEAR    N/A N/A N/A W3        30.14R
$$

NYZ026>034-041>043-087-270300-
NORTH


CITY           SKY/WX    TMP DP  RH WIND       PRES   REMARKS
WATERTOWN      PTCLDY    31  22  69 SW10      30.07R WCI  22
FORT DRUM      NOT AVBL
OGDENSBURG     FAIR      30  23  73 SW9G17    30.03R WCI  22
MASSENA        CLEAR     30  20  66 SW13      30.03R WCI  20
SARANAC LAKE   PTCLDY    18  15  88 SW8       29.97R WCI   8
PLATTSBURGH    CLEAR     28  15  58 S3        30.05R
$$

NYZ001>004-010>016-019>021-085-270300-
WEST


CITY           SKY/WX    TMP DP  RH WIND       PRES   REMARKS
NIAGARA FALLS  MOCLDY    34  21  59 SW14      30.05R WCI  25
BUFFALO        PTCLDY    33  18  53 SW16      30.06R WCI  23
DUNKIRK        CLEAR     34  18  52 S17G26    30.08R WCI  23
JAMESTOWN      CLEAR     28  14  54 S12       30.06R WCI  18
WELLSVILLE     CLEAR     28  13  53 SW9       30.08R WCI  19
ROCHESTER      MOCLDY    33  19  56 SW15      30.08R WCI  23
PENN YAN       CLEAR     32  15  49 S12       30.09R WCI  23
$$

             KEY
       WCI = WIND CHILL INDEX
       VSB = VISIBILITY
       HX  = HEAT INDEX
$$




USA.gov is the U.S. government's official web portal to all federal, state and local government web resources and services.